Location: Newark
(47.7394°N, 8.0008°E)
Time: 20:37:55
(UTC+00:00)

N. Korean satellite - Pass Details

Date: 15 December 2019
Orbit: 454 x 507 km, 97.2° (Epoch: 28 January)

Event Time Altitude Azimuth Distance (km) Brightness Sun altitude
Rises 16:37:12 0° 175° (S) 2,595 10.5 -9.8°
Reaches altitude 10° 16:39:18 10° 179° (S) 1,711 9.6 -10.1°
Maximum altitude 16:42:57 60° 259° (W) 580 7.3 -10.6°
Drops below altitude 10° 16:46:35 10° 340° (NNW) 1,705 9.3 -11.2°
Sets 16:48:41 0° 345° (NNW) 2,585 10.2 -11.5°
